User: anonymous
Location: Unspecified
(0.0000°N, 0.0000°E)
Time: 06:37:37
(UTC+00:00)
Language:

RESURS DK-1 - Orbit

View from above orbital plane
View from above orbital plane
View from above satellite
View from above satellite

Ground track
Ground track

The orbit data is extracted from the following two-line orbital elements,

1 29228U 06021A   14209.85656372  .00000138  00000-0  18428-4 0   800
2 29228 069.9369 258.3691 0004650 193.9952 286.0738 15.00732297449821
Epoch (UTC): 28 July 2014 20:33:27
Eccentricity: 0.0004650
inclination: 69.9369°
perigee height: 561 km
apogee height: 568 km
right ascension of ascending node: 258.3691°
argument of perigee: 193.9952°
revolutions per day: 15.00732297
mean anomaly at epoch: 286.0738°
orbit number at epoch: 44982

The dashed part of the orbit path shows where the satellite is in the earth's shadow,  

DLR